Zurück zum Katalog

SES 9

AktivKommunikationGEO
NORAD 41380·PAYLOAD·🇱🇺 Luxembourg

Gestartet Mar 4, 2016 von Cape Canaveral Space Force Station

Loading…

TLE

AktuellSource: CelesTrak SupGP

Epoche: Sep 13, 2026, 23:30 UTC

1 41380C 16013A   26256.97916667 -.00000256  00000+0  00000+0 0  2567
2 41380   0.0025 228.5491 0001933 257.6491 327.5567  1.00273716    19

Verfolge SES 9 in Echtzeit mit AllMySat

Download on the App Store